STARLINK-1558, 46035

Orbit data source: Space-Track

STARLINK-1558, 46035 is a payload satellite owned by SpaceX/Seattle (US) in LEO that was launched on Fri, 07 Aug 2020 UTC via an FALCON 9 launch vehicle from the Air Force Eastern Test Range (AFETR). Payload-class satellites include a variety of spacecraft equipped with specific instruments for various scientific and technological missions. These include communications satellites like Starlink; space stations such as the ISS; scientific satellites like the Hubble; Earth observation satellites from companies like Planet Labs, Umbra, and HawkEye 360; GPS; miniature CubeSats for education and research; and military/defense satellites.

Loading next visibility...
Identifier
46035, 2020-055J
Orbit
LEO
Country
Flag of USUS
Related business
Manufacturer
SpaceX/Seattle
Mission
Operational Commercial Communications
Bus & Motor
STARLINK, Unknown motor
Mass
260 kg wet, ~248 kg dry
Launch date (UTC)
2020-08-07 (6 years ago)
Launch vehicle
FALCON 9
Launch site
Air Force Eastern Test Range (AFETR)
Object type
Payload
Rocket body
Debris
Shape & HBR
Box + 1 Pan, 10.1 m
Radar Cross Section
13.562 m², Large (>1 m²)

Expand to show TLE details & history
Last TLE update: 1 day ago

TLE from 1 day ago
0 STARLINK-1558
1 46035U 20055J   26192.25354195  .00000310  00000-0  21760-4 0  9998
2 46035  53.1575 272.6388 0001236  74.4575 285.6563 15.31708200327819
Epoch: 2026-07-11T06:05Z
TLE epoch observation values (Epoch: 2026-07-11T06:05:06.024Z)
Latitude
-0°
Longitude
-107.80571°
Altitude
471.387 km
Speed
7.632 km/s
True Right ascension
18h 10m 33s
True Declination
0° 00' 00"
Sunlit
Object was in full shadow at epoch
Visualization orbit readout
Latitude
Unknown
Longitude
Unknown
Altitude
Unknown
Speed
Unknown
Apparent Right ascension
Unknown
Apparent Declination
Unknown
Sunlit
N/A
Visualization observer readout
Local Sidereal Time
21:58:23
Azimuth
Unknown
Elevation
Unknown
Doppler factor
Unknown
Orbital elements
Apogee altitude
471.819 km
Perigee altitude
470.126 km
Semi-major axis
6,849.11 km
Eccentricity
0.00012
Inclination
53.1575°
RAAN
272.6388°
Arg. of periapsis
74.4575°
True anomaly
285.64266°
Mean anomaly
285.6563°
Eccentric anomaly
285.64948°
Mean motion
3.82906 °/min
Orbital period
94.02 mins
BSTAR
0.00002176
Loading maneuver chart data...
Computing Atmospheric mass density...
Loading historical data...
Loading historical data...
Loading historical data...
Loading historical data...
Loading historical data...
Loading historical data...
Loading historical data...

Documentation

Showing up to 5 results
|